LIMCLDDU

Guest
Details From LIMC - Milano Malpensa
To LDDU - Dubrovnik
Flight Number -
Tags Generated
Created
Modified
Stats Distance 450 nm / 833 km
Max Altitude 0 ft / 0 m
Waypoints 4
Social Downloads 4
Likes 0
Share VATSIM

Download

Looking for another format? Having issues loading an existing format? Contact us
Advertisement - Login to hide

Notes

Generated

Route

LIMC NIKOL DBK04 LDDU

ID Type Via Altitude Latitude Longitude Leg Dist Tot Dist Heading (true) Name
O LIMC APT - 0 ft / 0 m 45.65044˚ 8.72841˚ - 0 nm - -
NIKOL FIX - 0 ft / 0 m 44.22194˚ 13.68611˚ 227 nm 227 nm 110° / 114° -
DBK04 FIX - 0 ft / 0 m 42.58304˚ 18.21164˚ 220 nm 448 nm 115° / 118° -
O LDDU APT - 0 ft / 0 m 42.56986˚ 18.24681˚ 1 nm 449 nm 117° / 117° -

Altitude Profile

Advertisement - Login to hide

Weather


0- 5 10 15 20 25 30 35+ Temperature / ° C

Clouds and Precipitation
Forecast for 2018-05-20 12:00 UTC. Updated an hour ago

Ground ~20,000 ft ~40,000 ft Winds

LIMC

Details ICAO LIMC (MXP)
Name Milano Malpensa
Region Italy
Timezone Europe/Rome (UTC+2.0)
Stats Elevation 767 ft / 234 m (AMSL)
Location 45.630606° 8.728111°
Runways 2
Magnetic Variation 2.427° E

METAR

LIMC 201020Z 35012KT 9999 FEW070 17/13 Q1018 NOSIG

Decode

TAF

TAF LIMC 200500Z 2006/2112 VRB05KT 9999 BKN040 TEMPO 2006/2010 4000 RA TEMPO 2010/2024 4000 TSRA

Decode

Departure Runways

ID Width Length Bearing (true) Bearing (mag) Surface Threshold Offset Overrun Length
17L 197 ft / 60 m 12,869 ft / 3,923 m 169.62° 167.19° Asphalt 3,094 ft / 943 m 0 ft / 0 m
17R 197 ft / 60 m 12,869 ft / 3,923 m 169.62° 167.19° Asphalt 0 ft / 0 m 0 ft / 0 m
35L 197 ft / 60 m 12,869 ft / 3,923 m 349.62° 347.19° Asphalt 1,329 ft / 405 m 0 ft / 0 m
35R 197 ft / 60 m 12,869 ft / 3,923 m 349.62° 347.19° Asphalt 0 ft / 0 m 0 ft / 0 m

LDDU

Details ICAO LDDU (DBV)
Name DUBROVNIK
Region Croatia
Timezone Europe/Zagreb (UTC+2.0)
Stats Elevation 527 ft / 161 m (AMSL)
Location 42.562840° 18.264499°
Runways 1
Magnetic Variation 4.145° E

METAR

LDDU 201030Z 30006KT 250V050 9999 FEW050 25/13 Q1014 NOSIG

Decode

TAF

TAF TAF LDDU 200525Z 2006/2106 24007KT 9999 FEW040 TX25/2014Z TN20/2104Z BECMG 2011/2013 28008KT PROB30 TEMPO 2012/2018 FEW035TCU BECMG 2019/2021 02010KT BECMG 2104/2106 12007KT

Decode

Destination Runways

ID Width Length Bearing (true) Bearing (mag) Surface Threshold Offset Overrun Length
12 148 ft / 45 m 10,803 ft / 3,293 m 118.30° 114.15° Asphalt 488 ft / 149 m 100 ft / 30 m
30 148 ft / 45 m 10,803 ft / 3,293 m 298.33° 294.18° Asphalt 0 ft / 0 m 100 ft / 30 m

Approach Navaids

Runway Type Ident Frequency Range Bearing (true) Bearing (mag) Slope Elevation
12 Localiser IDU 110.10 MHz 25 nm / 46 km 118.21° 114.06° - 469 ft / 143 m (AMSL)
12 Glidescope IDU 110.10 MHz 25 nm / 46 km 118.21° 114.06° 3.00° 502 ft / 153 m (AMSL)

Popular Alternatives